Regional Weather Roundup
Issued by NWS

Home | Current Version | Previous Version | Graphics & Text | Print | Product List | Glossary On
Versions: 1 2 3 4 5 6 7 8 9 10 11 12 13 14 15 16 17 18 19 20 21 22 23 24 25 26 27 28 29 30 31 32 33 34 35 36 37 38 39 40 41 42 43 44 45 46 47 48 49 50
000
ASUS45 KABQ 301310
RWRNM
WEATHER ROUNDUP FOR NEW MEXICO
NATIONAL WEATHER SERVICE ALBUQUERQUE NM
700 AM MDT TUE SEP 30 2014

NOTE: "FAIR" MEANS FEW OR NO CLOUDS BELOW 12,000 FEET AGL WITH NO
       SIGNIFICANT WEATHER OR OBSTRUCTIONS TO VISION.

      THIS PRODUCT IS RELEASED AS TWO VERSIONS.  ONE VERSION NEAR
      THE TOP OF THE HOUR CONTAINING PRELIMINARY DATA FROM ALBUQUERQUE
      AND OTHER STATIONS.  A FINAL VERSION WITH ADDITIONAL DATA IS
      ISSUED ABOUT 10 MINUTES AFTER THE HOUR.

NMZ501-503-504-510>518-301400-
NORTHWEST PLATEAU/NORTHCENTRAL MOUNTAINS

CITY           SKY/WX    TMP DP  RH WIND       PRES   REMARKS
FARMINGTON     CLEAR     41  38  89 E7        30.05F
LOS ALAMOS     PTCLDY    43  29  58 CALM      30.10F
SANTA FE       PTCLDY    43  32  65 N9        30.06R
TAOS           PTCLDY    30  28  93 N3        30.10S
ANGEL FIRE     FAIR      39  27  62 SW5       30.08R

$$
NMZ402-403-502-505>509-301400-
WESTCENTRAL MOUNTAINS/SOUTHWEST MOUNTAINS

CITY           SKY/WX    TMP DP  RH WIND       PRES   REMARKS
GALLUP         CLEAR     36  33  89 CALM      30.10S
GRANTS         PTCLDY    30  28  93 NW5       30.13S WCI  25
SILVER CITY    CLEAR     48  41  76 N9        30.07S

$$
NMZ407-409-411-412-301400-
SOUTHERN DESERTS

CITY           SKY/WX    TMP DP  RH WIND       PRES   REMARKS
LORDSBURG      FAIR      54  36  50 MISG      30.00S
DEMING         CLEAR     54  46  74 W7        30.00S
LAS CRUCES     CLEAR     59  49  70 W7        30.01R
HOLLOMAN AFB   CLEAR     60  55  82 N3        29.96R
ALAMOGORDO     CLEAR     59  54  82 CALM      29.97R
T OR C         CLEAR     55  40  56 N6        30.01R

$$
NMZ519>523-301400-
CENTRAL VALLEYS/CENTRAL HIGHLANDS

CITY           SKY/WX    TMP DP  RH WIND       PRES   REMARKS
ALBUQUERQUE    CLEAR     50  35  56 CALM      30.06R
DOUBLE EAGLE   CLEAR     45  34  65 W9        30.07R
MORIARTY ARPT  FAIR      36  31  81 CALM      30.07S
CLINES CORNERS PTCLDY    42  32  67 W14       30.05S
BELEN          FAIR      45  36  69 N7        30.06
SOCORRO        FAIR      51  39  63 N7        30.03S

$$
NMZ524>526-539-540-301400-
SOUTHCENTRAL MOUNTAINS

CITY           SKY/WX    TMP DP  RH WIND       PRES   REMARKS
RUIDOSO        NOT AVBL

$$
NMZ527>531-301400-
NORTHEAST HIGHLANDS/NORTHEAST PLAINS

CITY           SKY/WX    TMP DP  RH WIND       PRES   REMARKS
LAS VEGAS      CLEAR     46  27  47 CALM      30.02R
RATON          CLEAR     43  33  68 NE8       29.95S
CLAYTON        CLEAR     45  39  79 W10       29.90S

$$
NMZ532>537-301400-
EASTCENTRAL PLAINS

CITY           SKY/WX    TMP DP  RH WIND       PRES   REMARKS
TUCUMCARI      CLEAR     56  49  77 W9        29.90R
CANNON AFB     NOT AVBL
CLOVIS AIRPORT   N/A     54  52  94 S6        29.96S

$$
NMZ028-029-538-301400-
SOUTHEAST PLAINS

CITY           SKY/WX    TMP DP  RH WIND       PRES   REMARKS
ROSWELL        CLEAR     59  52  77 NW7       29.93R
CARLSBAD       CLEAR     61  58  90 N7        29.91R
HOBBS          CLEAR     59  59 100 S5        29.94R


$$


USA.gov is the U.S. government's official web portal to all federal, state and local government web resources and services.